Погода в Апуке

Россия / Камчатский край     60°26′33″N   169°36′20″E
темп.,
°C
ветер,
м/с
пор.,
м/с
влажн.,
%
обл.,
%
осадки,
мм/ч
давл.,
гПа
погр.,
м
17 июня, чт
чт1700:00+7ю0190100 0.0 100710
03:00+6вюв119559 0.0 100861
06:00+7ююз119050 0.0 100958
09:00+8юз228615 0.0 1009220
12:00+8зюз328658 0.0 1010272
15:00+7юз328861 0.0 1009216
18:00+7юз339044 0.0 1009237
21:00+7юз2289100 0.0 1010131
18 июня, пт
пт1800:00+6юз2393100 0.0 1010111
03:00+6юв1188100 0.0 1010107
06:00+7юв2283100 0.0 1011195
09:00+8юв2376100 0.0 1012325
12:00+7ююз3387100 0.4 1013139
15:00+7сз0182100 0.1 1014203
18:00+7зюз3281100 0.1 1015263
21:00+7зюз1187100 0.0 101692
19 июня, сб
сб1900:00+6сз1190100 0.0 101712
03:00+6ссз1191100 0.0 101711
06:00+6ссв1189100 0.0 101760
09:00+7ююз1181100 0.0 1017253
12:00+7юз328393 0.0 1017345
15:00+7ююз448463 0.0 1017311
18:00+7юз438673 0.0 1017365
21:00+6з228585 0.0 1018236
20 июня, вс
вс2000:00+6ссз118792 0.0 101869
03:00+6св1187100 0.0 101812
06:00+7всв2280100 0.0 1018137
09:00+8в3570100 0.0 1017379
12:00+10вюв4564100 0.0 1017531
15:00+10юв4665100 0.0 1016526
18:00+10юв3565100 0.0 1015439
21:00+10юв1172100 0.0 101512
21 июня, пн
пн2100:00+9всв2273100 0.0 101418
03:00+8всв3376100 0.0 101330
06:00+9в71275100 0.0 1013590
09:00+9в71177100 0.0 1013525
12:00+11в9126498 0.0 1013590
15:00+12в91360100 0.0 1012577
18:00+11в81260100 0.0 1011539
21:00+10в81362100 0.0 1012443